Погода в Амблсайде

Великобритания     54°25′56″N   2°57′35″W
темп.,
°C
ветер,
м/с
пор.,
м/с
влажн.,
%
обл.,
%
осадки,
мм/ч
давл.,
гПа
погр.,
м
14 мая, пт
пт1401:00+5всв119493 0.3 101111
04:00+5св119439 0.0 101113
07:00+7св118995 0.0 101171
10:00+8вюв1178100 0.1 1011502
13:00+10ю117399 0.5 1010935
16:00+11ю227094 0.9 10081103
19:00+10ю348118 2.1 1007712
22:00+6юв119079 0.3 100610
15 мая, сб
сб1501:00+5вюв119195 0.4 100510
04:00+6в1192100 0.1 100223
07:00+6в1195100 1.0 100279
10:00+6в1294100 0.9 1001157
13:00+7вюв2691100 1.3 1000800
16:00+9юв2383100 0.4 999838
19:00+7юв1293100 1.4 998145
22:00+7вюв119495 1.1 99815
16 мая, вс
вс1601:00+6всв1194100 1.8 99724
04:00+6юв1198100 2.1 99661
07:00+6в1196100 7.6 99660
10:00+9юв1284100 0.4 997556
13:00+11юв117399 1.8 996757
16:00+11с217799 2.6 996680
19:00+10св2288100 6.4 997192
22:00+7всв019395 2.0 99811
17 мая, пн
пн1701:00+6в009557 2.8 99910
04:00+5св119639 0.4 100011
07:00+7всв019267 0.7 100177
10:00+10сз228099 0.6 1002943
13:00+8зсз2289100 2.6 1003440
16:00+9зсз477863 0.6 10041014
19:00+8з477892 0.6 1005714
22:00+6зюз118660 0.0 100716
18 мая, вт
вт1801:00+4зюз119236 0.0 100812
04:00+3юз229653 0.0 100820
07:00+5зюз268694 0.1 1008698
10:00+7зюз688195 0.4 10091100
13:00+8зюз7979100 0.9 10091119
16:00+9зюз6874100 0.3 10091224
19:00+8зюз4778100 0.4 1009870
22:00+4ююз229182 0.0 101016